Wind_Speed
27 22 19 17 15 12 10 9 7 8 10 11 12 12 13 13 14 14 14 14 15 16 15 15 13 12 11 11 12 14 16 16 16 16 16 17 16 16 16 16 16 15 15 14 14 14 14 13 13 12 11 11 12 12 12 11 11 11 11 11 11 10 8 7 8 10 12 13 11 10 10 10 10 10 10 9 9 11 11 11 11 11 11 11 11
29 26 22 20 17 14 13 11 9 8 9 11 12 13 14 14 15 15 15 15 15 16 15 15 14 12 11 11 12 15 17 18 19 18 18 18 16 15 15 15 14 14 13 13 13 13 13 12 12 11 11 11 12 12 12 12 11 11 11 11 11 10 9 9 9 10 11 11 10 8 7 8 9 10 10 9 10 11 11 11 10 10 10 10 11
27 27 24 21 19 17 15 13 11 9 9 10 12 13 14 15 15 15 15 15 16 16 15 15 14 13 12 12 13 15 17 19 20 20 19 18 16 15 15 15 15 14 14 13 13 12 12 12 11 11 11 10 11 12 12 12 11 11 11 11 11 10 10 10 11 11 10 10 10 8 8 9 10 10 10 11 11 12 12 12 11 11 11 12 13
25 26 25 23 21 18 17 15 13 11 10 10 11 12 14 15 16 16 15 15 15 15 14 13 13 13 12 12 13 15 17 18 19 20 20 18 17 18 18 17 16 15 15 14 13 12 12 12 11 11 11 11 11 12 12 12 11 11 11 12 12 11 11 11 12 11 10 11 11 11 11 11 11 12 12 13 13 13 13 13 12 12 13 13 14
25 26 26 25 22 20 18 17 15 12 10 10 11 11 13 15 17 17 16 15 15 14 13 11 12 12 12 12 13 14 15 17 18 19 20 20 19 19 19 18 17 16 16 15 14 13 12 12 11 11 11 12 13 13 13 13 12 11 11 12 12 12 12 12 13 12 11 11 11 11 12 12 12 13 13 13 13 14 14 14 13 14 14 15 15
26 28 28 26 23 21 20 19 16 13 11 11 11 11 13 14 17 18 16 15 15 14 13 12 11 11 11 12 13 13 14 16 17 19 20 21 21 20 19 19 18 18 17 16 15 14 13 13 12 12 12 13 13 14 14 13 12 12 12 12 12 12 12 12 13 12 12 11 11 11 12 13 13 14 14 14 13 14 14 14 15 15 15 16 16
27 29 29 27 25 23 21 20 17 13 11 11 12 13 14 15 16 17 16 15 15 15 14 12 11 10 11 11 12 13 14 16 17 19 20 21 21 21 20 20 20 19 18 17 16 15 15 14 14 14 14 14 14 14 14 13 13 13 12 12 11 11 12 12 12 13 12 12 12 12 12 12 13 14 14 14 14 14 15 15 15 16 16 17 17
27 29 29 27 24 22 22 21 18 13 12 12 13 15 15 16 17 17 16 15 15 15 14 12 10 9 10 11 12 13 14 16 17 19 20 21 21 21 21 20 20 20 19 17 16 16 16 16 16 15 15 15 14 14 14 14 14 13 13 12 11 11 11 12 12 12 12 13 12 12 12 12 13 13 14 15 15 15 15 15 15 16 16 17 17
27 28 29 27 24 22 22 22 18 13 13 13 14 16 17 17 17 17 16 14 15 15 14 11 9 8 9 11 12 12 14 15 17 19 20 21 21 21 20 19 18 18 17 16 16 16 16 16 16 16 16 16 15 14 14 14 13 13 13 12 11 11 11 12 13 13 13 13 12 11 11 12 12 13 14 15 15 16 16 15 16 16 16 16 17
27 30 29 26 25 24 24 22 18 14 13 14 14 16 18 18 18 17 15 13 14 14 13 11 9 9 10 11 11 12 13 14 16 18 19 20 20 19 18 16 15 14 14 15 16 16 16 16 16 15 15 15 14 13 13 13 13 12 13 12 11 11 12 12 12 12 12 13 12 11 11 11 12 13 14 15 15 16 16 16 16 16 16 16 16
29 30 27 26 26 25 23 21 17 15 13 13 14 16 18 18 18 15 13 13 13 14 13 11 10 10 11 11 11 13 13 15 16 17 18 19 19 19 18 16 15 14 15 16 17 17 17 16 15 14 14 14 13 12 12 12 12 12 13 12 12 11 11 11 11 10 11 11 12 11 11 12 12 13 13 14 15 16 16 16 16 15 15 16 16
30 28 26 26 26 23 21 19 16 15 14 14 14 16 17 17 17 15 13 13 14 15 14 12 11 11 11 11 12 13 14 15 15 16 17 17 18 19 20 19 18 18 17 17 18 17 17 16 15 14 13 13 12 12 11 12 12 12 12 12 12 12 11 10 9 10 10 11 11 11 12 13 13 13 13 14 15 16 16 16 15 15 15 16 17
29 28 26 26 25 22 21 19 17 16 16 15 14 16 16 16 16 15 14 15 16 16 14 13 12 12 11 11 12 13 14 14 14 15 15 15 17 19 21 21 20 19 17 17 18 17 16 15 14 14 13 12 12 11 11 11 11 12 12 12 12 12 11 10 10 10 11 11 12 12 12 14 14 13 13 14 15 15 15 15 15 15 16 17 17
29 27 27 26 26 25 22 20 19 18 17 15 15 15 15 15 15 15 15 16 16 16 15 14 13 13 11 11 12 13 13 13 13 13 13 14 17 19 20 20 19 18 17 17 17 17 16 15 14 14 13 12 12 11 11 10 10 11 12 11 11 10 10 10 10 11 11 12 12 13 13 14 14 13 13 14 15 15 15 15 15 16 17 17 17
29 28 27 26 27 26 23 21 21 19 17 16 15 16 15 14 15 15 16 17 17 16 16 14 13 12 11 11 12 13 13 13 13 12 13 14 16 18 19 18 17 17 17 17 16 16 15 14 13 14 14 13 13 12 11 10 10 10 10 10 9 9 10 10 10 11 11 11 12 12 12 13 13 13 14 15 15 15 15 15 16 17 17 17 17
30 29 28 27 28 26 24 24 23 20 18 17 16 17 16 16 16 17 17 18 18 18 16 14 13 11 11 11 12 13 13 12 10 10 11 13 16 18 17 15 15 16 16 16 16 15 14 12 12 13 13 14 14 13 12 12 12 11 11 11 10 10 11 11 11 11 11 11 11 11 12 12 13 14 15 15 15 15 15 15 16 17 17 17 17
29 28 27 27 29 28 26 26 25 22 20 19 19 19 19 19 18 19 19 19 19 18 16 14 13 12 12 12 13 13 12 11 9 7 8 11 14 15 14 13 15 16 16 16 16 15 13 11 11 12 13 13 14 14 14 14 14 14 13 13 13 13 14 14 13 13 13 12 12 12 12 12 12 13 14 14 15 14 14 15 16 16 16 16 17
28 28 27 28 30 29 28 29 28 25 23 23 23 22 21 20 19 19 20 20 19 18 17 16 14 13 13 14 14 13 12 11 9 9 9 10 12 12 12 13 14 16 16 16 15 13 11 9 9 10 12 12 13 14 15 15 15 15 16 16 16 16 16 16 15 15 15 14 14 14 14 14 14 14 14 14 14 14 14 15 16 16 16 17 17
29 29 28 28 31 31 30 30 30 29 28 27 26 24 22 21 20 20 21 20 19 18 18 16 15 14 14 14 14 14 13 12 10 11 11 12 12 10 10 12 13 15 15 14 12 11 9 8 7 7 9 10 12 12 13 13 13 14 15 15 16 16 16 16 16 16 16 15 15 15 15 15 15 15 15 15 14 14 14 15 16 17 17 17 18
30 30 30 31 34 33 31 30 32 33 33 31 28 25 22 21 22 22 22 21 20 19 18 16 15 15 15 15 16 15 14 13 12 12 13 13 12 10 9 10 11 13 13 12 10 10 9 8 6 7 8 9 10 11 11 11 11 12 12 13 13 14 14 14 15 15 15 15 15 15 15 15 15 15 15 15 15 15 15 16 17 17 17 17 18
30 31 31 32 34 36 36 34 34 35 36 33 30 26 24 23 23 24 23 22 21 20 18 17 16 15 15 16 17 16 16 15 14 15 16 15 14 13 11 10 10 11 12 11 11 11 11 10 9 9 9 10 11 11 11 11 11 10 11 11 11 12 12 13 13 14 14 14 14 14 15 15 15 15 15 15 15 15 15 16 16 16 17 17 17
30 32 31 29 30 35 40 41 39 38 35 32 29 27 26 26 25 24 24 23 22 20 18 17 16 16 16 17 17 16 16 16 16 17 18 17 16 15 14 12 12 12 12 12 13 14 14 14 14 13 12 12 12 12 11 11 10 10 10 10 11 11 12 13 14 14 13 13 13 13 13 13 13 14 14 14 14 14 15 15 16 16 17 17 17
30 33 34 34 35 34 36 44 45 40 36 32 30 30 30 28 27 25 24 23 22 21 19 18 17 16 16 17 16 16 17 18 18 18 18 18 17 17 16 15 15 14 13 13 13 14 15 15 16 15 14 14 14 13 12 12 12 11 11 12 12 13 14 15 15 14 14 13 13 12 12 12 12 12 13 13 14 14 15 15 16 16 16 16 17
33 36 37 38 39 35 32 42 48 42 39 36 31 32 33 30 27 25 24 24 24 24 21 19 18 17 16 15 15 16 18 18 18 17 17 17 18 19 19 18 17 16 15 14 14 13 13 14 14 15 15 15 15 14 13 13 13 12 12 13 14 15 16 16 15 15 14 13 13 13 13 12 12 13 13 14 14 15 15 15 15 15 15 16 16
35 38 39 37 36 32 28 34 46 43 39 36 32 32 33 30 29 27 25 25 25 25 22 19 18 19 18 16 15 16 17 16 15 16 16 16 17 18 18 18 17 17 16 16 14 12 12 12 13 15 15 15 15 15 14 14 13 13 13 14 15 16 16 16 16 15 14 14 13 13 13 13 13 13 14 14 15 15 15 15 15 15 15 16 16
32 34 36 35 35 34 29 29 41 44 38 35 33 31 30 30 32 31 28 26 26 25 23 20 19 19 20 20 18 16 16 15 15 15 16 16 16 16 17 17 16 16 16 15 14 13 12 12 13 15 16 16 16 15 15 14 14 14 15 16 16 17 17 17 16 16 15 14 14 14 14 14 14 14 15 15 15 15 16 16 16 17 17 17 17
27 28 31 32 33 34 32 29 37 43 39 34 34 33 31 31 36 36 30 25 25 26 24 22 21 19 20 21 21 19 18 18 17 17 16 17 18 18 18 17 16 16 15 14 14 14 13 13 14 15 16 16 16 16 16 16 15 15 16 17 18 18 18 18 17 17 16 15 14 14 14 14 15 15 15 16 16 17 18 18 18 18 18 18 19
22 23 26 29 30 31 32 31 34 40 39 36 35 34 31 31 35 37 31 26 26 25 23 24 24 22 21 21 22 22 22 21 20 18 16 17 19 19 19 17 16 15 14 14 14 14 14 15 15 16 17 18 18 18 18 17 17 17 17 18 18 19 19 19 18 18 17 16 15 15 15 15 16 17 17 18 18 19 19 19 19 19 19 19 19
20 20 23 25 27 29 31 31 33 37 36 35 33 29 26 26 31 34 31 29 28 26 24 24 24 24 24 22 22 23 23 21 20 20 19 17 17 17 18 17 16 15 15 14 14 14 15 16 17 18 18 19 20 20 20 19 19 18 18 18 19 19 20 20 19 19 18 17 16 16 17 17 18 19 20 20 20 21 21 20 20 19 19 19 20
17 17 17 19 22 24 25 27 32 35 34 32 29 27 24 22 25 29 28 27 27 25 23 22 21 21 22 22 22 23 23 20 18 18 18 17 17 16 17 17 16 16 16 16 16 16 17 18 19 19 20 20 20 21 20 20 20 19 19 20 20 20 20 20 20 20 19 18 18 18 19 20 21 21 22 22 23 23 22 22 21 20 20 20 20
16 14 13 13 16 18 24 29 33 33 31 30 27 25 24 23 23 25 24 23 23 22 21 20 20 20 21 22 22 23 23 20 17 17 18 18 18 17 17 17 16 16 17 18 19 19 20 20 21 21 21 21 21 21 21 21 21 21 20 20 21 21 21 21 21 21 21 21 21 21 22 22 23 24 24 24 25 25 25 24 23 23 22 22 22
16 15 13 13 15 14 21 30 33 31 29 27 26 24 23 23 23 22 23 22 22 20 20 20 20 20 19 18 17 16 16 16 16 17 19 19 19 18 18 17 16 16 17 19 20 21 22 23 24 24 25 24 24 23 23 23 23 22 22 22 23 23 23 23 23 24 24 23 24 24 25 25 26 27 27 28 28 28 28 27 27 26 25 25 25
17 16 15 15 16 15 16 22 26 28 26 24 25 25 22 21 20 20 21 22 20 19 20 19 19 17 16 15 14 12 13 14 16 17 17 18 18 17 17 16 16 16 17 19 20 22 23 24 25 26 27 27 27 26 25 25 25 25 24 25 25 25 25 26 26 26 26 26 27 27 27 28 28 29 29 30 30 31 31 30 30 29 29 29 29
18 17 17 16 16 16 16 18 19 21 22 22 22 22 21 22 21 21 23 22 19 19 19 19 18 17 16 15 14 15 16 16 17 17 18 18 17 17 17 18 17 17 18 20 21 23 24 24 25 26 28 29 29 28 27 27 27 27 27 27 27 27 27 28 28 29 29 29 30 30 31 31 31 31 32 32 32 32 33 33 33 33 33 33 33
20 18 17 16 17 17 19 21 18 17 20 21 19 18 20 23 21 21 22 21 19 18 18 18 19 19 18 17 18 19 19 18 18 19 18 17 17 19 20 19 19 19 20 21 21 22 23 24 24 25 27 29 30 29 29 28 28 28 28 29 29 29 30 31 31 32 32 33 33 34 34 34 34 35 35 35 35 35 35 35 35 36 36 36 37
21 20 19 19 20 21 22 23 21 19 20 22 21 20 22 22 19 18 19 18 17 18 19 19 20 22 22 22 22 21 19 18 19 20 20 19 20 21 21 20 21 21 22 22 22 22 23 24 25 25 26 28 29 29 29 29 29 29 29 30 31 32 33 34 34 35 35 36 36 37 37 37 37 38 38 39 39 39 39 39 39 39 40 40 41
22 22 21 21 23 26 25 23 21 20 20 21 22 23 24 24 23 22 22 20 18 17 19 20 21 24 24 23 22 20 18 18 20 20 20 21 21 20 20 21 22 23 23 23 23 23 24 26 27 27 27 28 30 30 30 30 30 30 31 32 34 35 36 37 38 39 39 39 39 39 39 39 40 40 41 41 42 43 43 43 43 44 44 45 45
25 23 23 23 23 27 27 25 22 22 22 21 22 23 24 25 25 24 25 25 24 22 21 19 18 20 20 18 17 18 19 20 20 20 20 21 20 21 22 23 24 24 23 23 23 24 25 27 29 30 30 30 31 31 32 32 33 34 35 35 36 38 39 40 42 42 43 43 43 42 42 42 42 43 44 44 45 46 47 47 48 48 49 49 49
26 25 25 25 24 24 24 24 24 24 24 23 24 24 24 25 26 26 26 28 29 29 28 26 24 22 22 20 19 19 20 21 22 23 24 22 22 23 24 25 25 25 23 23 24 26 27 29 31 33 34 35 35 36 36 37 37 38 38 38 39 40 41 42 44 45 46 46 46 46 46 46 46 46 47 47 48 49 50 51 52 52 53 53 53
26 25 26 27 27 26 25 25 25 25 25 26 26 27 27 27 28 28 28 29 30 31 32 32 31 30 29 29 27 26 25 23 23 23 24 25 26 27 27 27 27 27 26 26 26 28 30 32 34 37 38 38 39 40 40 40 40 41 41 41 41 42 43 44 46 48 49 50 50 50 50 50 50 50 50 51 51 52 54 55 55 56 56 57 57
27 26 26 27 29 29 28 27 27 26 27 28 28 29 29 30 30 30 30 30 31 32 32 31 31 31 32 33 33 32 31 31 30 26 25 27 29 29 30 30 31 31 30 29 28 28 30 32 35 38 40 39 40 42 43 44 43 43 43 44 44 45 45 47 49 51 52 53 54 55 55 55 55 54 54 54 54 55 57 58 59 59 60 61 62
28 27 26 26 27 28 28 29 30 30 30 30 31 31 31 30 30 30 30 31 31 32 32 31 30 31 31 32 34 34 33 33 35 34 32 31 32 32 32 33 34 35 35 35 34 33 34 35 37 39 38 37 38 40 42 43 44 45 46 48 49 49 50 51 52 54 55 56 57 58 59 60 60 59 59 58 59 60 61 61 62 64 65 66 66
28 28 27 28 28 28 29 30 31 32 33 34 34 33 32 31 30 30 30 30 30 31 31 31 31 31 31 32 34 35 34 33 35 37 38 37 37 37 37 37 37 38 38 38 38 38 39 42 44 45 44 42 41 41 42 44 47 49 51 52 52 53 53 53 53 54 56 58 59 60 62 63 63 64 64 63 64 65 66 66 66 66 67 67 68
30 30 30 30 31 31 32 32 32 33 35 35 36 35 33 32 32 31 30 30 30 30 30 31 32 33 33 34 35 36 37 37 38 39 40 41 41 42 42 41 40 39 39 40 40 42 44 46 49 51 52 52 51 51 51 53 54 55 56 57 58 58 58 57 57 57 58 59 61 63 64 64 65 65 66 67 68 68 68 67 67 67 67 67 67
31 31 31 31 32 32 33 33 33 34 35 37 37 36 34 33 33 32 32 32 31 31 31 32 34 35 35 36 37 38 39 40 41 42 43 44 45 46 45 44 43 43 43 44 46 47 49 51 53 55 56 57 58 58 58 59 60 61 62 63 63 63 63 63 62 61 61 61 62 64 65 65 65 66 68 69 69 68 68 68 68 68 69 70 70
27 28 30 30 31 31 32 34 34 35 37 38 38 37 36 35 35 35 35 35 35 35 35 37 38 39 39 40 40 41 42 43 44 45 46 48 49 50 50 50 49 49 50 51 52 52 52 53 55 57 59 60 62 63 63 64 65 65 65 65 64 63 63 63 63 63 63 63 64 65 66 67 68 69 70 70 70 70 69 69 69 69 70 71 71
26 27 28 29 30 30 31 33 34 35 37 38 38 37 36 36 37 37 38 38 38 39 40 40 41 42 43 43 44 45 45 46 47 48 49 50 52 53 54 55 55 55 55 55 54 53 53 54 55 57 59 60 62 63 64 64 64 65 64 64 64 63 63 63 64 64 65 65 65 66 67 68 69 70 72 72 72 72 72 71 70 70 70 70 71
30 30 29 30 31 31 31 32 32 33 34 35 35 36 36 36 37 37 38 39 39 40 40 41 41 42 43 44 45 46 46 47 48 49 50 51 52 53 54 54 55 55 55 54 53 53 52 53 54 55 56 57 58 60 61 61 62 63 64 64 65 66 66 67 67 68 68 68 69 69 70 71 71 71 72 73 73 73 73 72 72 72 71 72 72
34 33 33 33 33 33 34 34 33 33 34 34 35 35 36 36 36 36 37 38 38 39 39 39 40 40 41 42 42 43 44 45 46 47 48 49 50 50 51 52 52 52 53 53 53 53 54 54 55 56 57 58 59 61 62 63 65 66 67 67 68 69 69 70 70 71 71 71 72 72 72 72 73 73 73 73 73 74 74 74 74 74 74 74 74
35 35 35 35 35 34 35 35 34 34 34 34 35 36 36 36 36 37 37 37 38 38 39 39 40 40 41 41 42 43 44 45 46 47 47 48 49 49 50 51 52 53 54 54 55 56 57 57 58 59 60 61 63 64 65 66 67 68 69 69 69 70 70 71 71 72 72 72 73 73 73 74 74 74 74 74 75 75 76 76 77 77 77 76 76
38 37 37 36 35 35 35 36 36 36 37 37 38 38 39 39 39 39 40 40 41 41 41 42 42 43 43 44 45 45 46 47 48 48 49 50 51 51 52 53 54 55 56 56 57 58 59 60 61 62 63 64 65 66 67 68 68 69 69 70 70 70 71 71 71 71 70 71 71 71 71 71 71 71 71 71 72 72 72 72 73 73 73 73 73
Wind_Direction
268 258 232 227 226 217 217 215 216 227 235 238 238 236 234 235 237 237 239 240 242 246 250 253 255 255 256 253 248 243 245 252 255 252 248 248 250 252 253 252 248 242 237 232 228 225 223 221 220 220 220 221 224 227 227 226 227 231 234 236 240 242 244 248 248 246 243 235 231 235 239 241 241 239 238 244 255 256 254 256 257 256 259 262 260
260 253 233 226 228 225 226 221 212 216 227 233 235 236 234 235 237 237 237 239 240 240 240 244 248 251 253 248 245 243 244 249 252 252 253 254 255 252 247 243 239 237 233 227 221 216 213 212 212 213 215 217 220 222 223 225 228 232 237 239 242 243 243 247 245 247 249 238 228 235 239 240 243 240 237 241 249 252 253 254 254 256 259 262 262
252 245 230 224 228 229 232 228 215 211 220 228 233 237 237 238 239 240 239 240 241 240 237 238 241 247 249 244 239 238 241 245 248 251 255 256 251 242 237 234 233 230 226 219 214 212 210 211 213 215 217 219 222 224 227 230 233 236 238 240 242 244 244 245 243 244 248 243 242 251 251 246 249 247 243 242 243 247 250 252 254 257 260 263 265
245 238 226 224 228 230 235 233 220 214 222 228 233 239 241 242 242 241 241 241 242 241 239 237 239 243 245 243 240 238 238 241 244 248 251 249 240 233 232 232 230 227 222 218 215 214 215 216 218 220 222 226 230 231 232 235 238 238 239 241 242 244 244 242 242 242 241 244 250 256 256 253 251 249 246 246 246 247 249 253 257 260 262 264 266
235 230 223 223 227 229 233 233 226 221 228 236 238 242 244 243 242 240 240 241 241 240 242 241 241 245 245 245 244 242 242 242 242 244 244 240 235 232 232 231 229 225 220 218 216 217 220 223 226 227 228 232 235 235 237 238 239 240 242 243 245 245 244 242 242 241 240 243 250 255 258 257 253 251 249 249 251 251 252 255 258 261 263 265 267
230 225 220 220 223 226 229 233 230 225 233 244 246 248 248 246 244 239 239 242 241 240 242 243 246 249 250 251 250 249 247 245 244 242 241 239 237 235 234 232 229 226 222 220 220 222 227 232 236 237 237 238 239 239 240 240 240 242 244 246 247 248 248 247 245 244 242 242 247 252 257 258 256 254 254 255 257 257 258 260 262 264 267 269 270
230 227 222 220 222 225 228 231 230 227 237 248 254 257 256 252 247 242 241 243 242 241 241 243 247 250 253 254 253 252 251 250 248 245 243 242 242 240 237 234 230 228 226 226 228 231 236 240 243 244 244 244 244 243 243 241 240 240 243 246 248 248 248 250 250 247 244 242 245 251 257 260 260 259 262 265 266 264 263 263 266 269 272 273 274
229 228 225 222 225 229 230 230 229 229 240 252 261 266 261 255 251 246 244 244 242 240 239 239 241 246 250 250 249 250 250 250 249 248 247 245 244 242 238 234 230 228 230 232 236 239 242 245 247 248 248 246 245 245 244 241 239 238 239 241 245 247 246 249 251 247 245 246 248 254 259 260 262 264 269 273 273 269 266 266 270 273 275 276 279
225 226 224 222 225 230 229 228 228 230 243 258 269 270 262 256 253 248 245 242 240 238 236 233 233 239 245 246 247 249 250 251 251 250 249 247 244 241 236 232 229 229 232 236 240 243 245 246 247 247 245 244 242 241 242 240 236 234 233 232 233 237 238 242 247 246 249 253 255 258 261 261 264 267 270 273 273 271 271 273 276 278 280 282 284
222 223 222 221 224 227 228 228 227 231 246 261 271 270 264 259 255 249 244 240 239 238 234 228 226 232 240 245 250 253 255 254 253 251 249 246 242 236 230 228 232 237 242 246 249 248 247 245 243 241 240 239 237 235 237 238 235 229 228 227 225 226 228 230 236 241 247 254 258 260 261 262 265 267 269 270 272 274 276 279 282 285 286 287 288
219 220 220 222 225 228 230 229 227 232 246 261 269 270 268 262 254 246 241 239 239 237 232 224 222 230 240 248 254 256 257 255 253 251 247 244 239 232 228 231 242 252 254 253 253 250 246 242 240 238 236 235 234 232 232 235 236 232 229 228 224 223 226 227 230 236 242 248 254 257 260 262 263 267 268 269 271 275 278 282 286 288 288 288 287
218 218 219 223 227 230 234 231 228 235 246 258 267 272 271 262 249 241 238 238 238 235 229 221 222 231 238 247 253 253 253 251 249 248 245 241 236 233 234 240 251 257 255 250 247 244 241 238 236 234 233 232 231 231 232 234 236 235 234 232 228 227 228 231 235 238 240 244 247 250 254 259 261 264 265 266 270 274 278 282 285 287 287 286 283
218 219 220 223 226 228 231 232 231 237 246 255 266 274 272 258 243 237 235 236 237 233 226 219 220 226 232 241 247 246 246 245 244 243 241 236 235 237 241 246 251 252 248 242 236 234 233 231 231 231 230 229 228 228 229 233 236 237 237 235 232 232 231 234 240 241 241 243 245 246 249 254 257 259 262 265 269 273 277 280 283 284 284 281 279
220 222 223 227 228 224 227 234 234 238 246 255 266 274 270 253 238 233 232 233 234 229 222 216 217 222 228 236 240 241 243 244 245 243 237 234 235 239 243 245 245 242 239 234 228 226 226 226 226 228 229 228 227 226 226 229 233 236 238 236 233 233 234 236 239 240 241 243 245 246 247 251 256 260 262 265 268 272 276 279 280 281 280 278 278
223 228 231 236 237 228 229 239 239 240 248 254 264 270 265 249 234 230 229 230 230 225 217 212 216 225 232 238 243 245 246 247 247 244 237 233 235 240 244 243 237 232 231 230 228 225 223 224 224 226 227 226 225 225 223 221 222 226 230 233 233 233 234 233 233 236 239 242 245 246 247 251 256 260 263 266 268 271 274 277 279 279 278 278 279
226 230 232 238 241 235 237 245 246 245 249 253 261 264 257 244 232 228 228 229 228 222 213 211 219 229 236 243 247 247 246 243 243 244 239 235 236 241 243 238 230 227 225 227 230 230 229 228 228 228 228 227 225 225 223 219 218 221 225 231 235 237 237 236 236 236 238 241 244 248 249 252 255 259 262 265 268 270 273 276 277 278 279 281 282
229 232 231 235 241 243 246 251 252 249 250 253 256 255 251 242 234 230 229 230 229 222 213 212 218 227 234 239 242 242 240 236 235 245 247 242 241 243 240 231 227 228 227 227 229 233 236 237 235 233 231 229 228 228 228 228 229 232 236 240 243 245 246 246 246 244 243 245 248 251 254 257 260 263 266 268 270 273 275 277 278 279 281 282 283
231 233 232 234 240 245 250 253 253 249 248 249 250 251 252 247 240 236 234 233 231 224 216 215 220 228 234 236 237 235 233 234 242 254 258 253 251 249 242 235 234 236 236 233 229 227 226 227 231 232 229 227 228 230 232 235 238 241 244 247 249 250 251 251 251 248 247 247 249 252 255 260 264 267 270 273 276 278 278 278 279 280 281 283 284
233 235 235 236 241 243 246 250 251 249 248 248 248 250 254 253 246 242 240 238 236 229 222 223 229 236 241 240 239 236 233 237 247 256 259 260 260 256 247 244 244 244 242 235 228 223 215 209 214 226 230 230 229 231 233 236 240 244 247 249 250 251 252 252 251 249 247 248 249 252 255 258 262 266 269 273 276 279 280 279 279 281 283 286 287
239 240 238 238 240 240 239 246 249 249 249 247 247 250 254 254 248 242 241 241 238 234 229 231 238 241 241 240 238 237 238 242 247 249 250 253 256 252 245 245 249 248 245 238 234 233 228 222 223 232 240 240 236 233 234 235 238 241 245 248 250 251 252 252 252 251 251 251 252 254 257 259 262 265 268 271 274 277 278 278 280 283 285 287 288
244 246 246 244 246 242 236 241 247 247 248 247 247 249 251 251 246 241 241 241 239 236 233 235 241 240 237 236 234 233 234 237 241 240 240 241 243 242 241 244 248 249 248 248 249 249 250 250 251 252 251 246 239 234 233 233 235 239 244 249 253 255 256 257 256 256 255 256 256 258 259 261 263 265 267 269 271 273 274 276 278 280 281 283 285
249 254 256 257 259 248 234 235 243 244 246 248 246 248 249 247 244 241 241 242 241 239 236 238 240 239 237 235 232 229 229 230 231 232 233 233 233 235 240 245 248 249 249 253 257 260 262 263 263 262 256 247 242 238 237 236 236 240 248 254 259 262 263 264 263 263 263 263 264 264 266 267 269 271 272 273 273 273 274 276 276 277 278 278 280
253 257 261 262 263 257 239 231 233 236 238 239 238 240 242 241 240 240 241 241 241 239 236 237 238 237 238 239 235 232 231 230 229 231 234 234 233 234 237 242 247 250 251 254 258 261 263 264 264 261 254 247 243 241 240 241 240 243 248 253 257 260 262 262 261 262 264 265 266 267 269 272 273 273 274 275 275 276 276 276 276 276 276 277 277
254 257 261 262 262 265 255 233 224 225 229 231 233 234 233 233 234 236 238 237 237 236 235 236 238 237 239 244 243 236 232 231 231 232 232 232 234 235 236 239 243 249 254 258 261 262 262 260 256 252 247 243 243 242 241 242 242 245 248 253 258 261 261 260 258 258 259 261 263 265 267 269 270 271 272 272 274 275 275 276 275 275 276 276 276
256 257 259 262 261 265 264 235 220 221 227 232 236 234 232 232 232 234 235 233 234 235 234 235 237 237 238 241 240 236 234 235 238 240 238 235 235 235 236 238 240 245 251 257 262 263 262 256 248 243 240 240 241 241 241 242 243 246 251 257 261 262 261 260 258 257 258 259 262 264 266 267 267 268 269 271 273 274 275 275 275 276 276 275 274
258 258 259 262 259 259 263 240 221 221 226 232 235 234 234 236 234 233 231 228 232 235 234 234 236 235 235 234 232 232 232 235 243 247 246 243 240 240 242 242 242 245 250 256 262 265 263 254 243 239 238 237 238 239 239 241 243 248 254 259 261 261 259 258 257 256 257 258 260 262 263 263 265 267 269 270 272 273 274 275 275 275 275 274 274
256 257 259 262 261 257 260 252 230 222 224 232 236 235 237 239 236 233 228 225 231 235 236 239 240 238 237 234 233 234 236 240 246 248 246 245 244 243 245 246 245 247 252 256 260 262 262 255 245 240 240 238 237 237 239 242 245 250 255 259 260 259 258 256 254 254 255 257 259 261 261 263 264 265 266 267 268 270 271 272 273 273 274 274 275
253 256 257 259 261 258 259 255 235 222 223 231 237 237 238 241 239 235 230 228 233 236 236 239 242 242 240 238 237 238 240 244 246 244 243 244 242 241 243 246 247 249 253 256 258 260 260 255 248 243 242 242 241 240 242 245 249 252 255 257 257 257 256 255 254 253 253 254 256 258 260 262 264 265 266 267 268 269 269 269 269 270 270 271 271
256 257 256 257 262 262 260 251 231 221 225 232 236 237 240 245 243 237 232 231 234 235 232 231 235 238 239 241 241 238 240 248 252 246 239 238 240 239 239 242 248 254 258 259 259 260 258 252 246 242 242 244 244 245 247 250 253 255 255 255 255 254 253 252 251 250 250 251 252 254 256 258 261 262 264 265 265 265 264 264 264 263 264 265 265
258 259 257 259 258 248 242 237 223 217 222 229 232 234 237 238 235 231 231 232 233 235 232 228 230 236 240 243 241 238 241 250 254 245 234 234 241 242 237 239 247 255 259 261 261 261 259 253 246 241 242 244 246 249 252 255 257 258 257 256 255 254 252 250 249 248 248 249 249 251 253 255 257 259 260 261 261 261 260 260 259 260 260 260 260
260 264 260 261 258 231 211 215 218 216 219 225 228 230 231 229 224 225 232 233 231 232 230 229 235 241 244 245 244 241 240 243 250 248 239 240 246 245 237 236 244 252 258 261 262 263 263 260 254 246 242 243 245 248 252 254 255 255 255 255 254 253 251 250 249 249 249 249 250 250 251 252 254 256 257 258 259 258 258 258 258 259 260 260 260
265 272 268 265 269 243 204 205 213 215 216 223 226 225 227 227 226 232 236 227 219 223 227 232 239 241 238 236 236 237 236 241 252 254 249 247 247 243 234 231 241 255 262 265 265 265 264 263 260 255 249 246 246 248 250 251 252 253 254 255 254 252 250 249 250 251 252 253 254 255 255 256 256 257 257 258 258 257 257 258 259 260 261 263 264
271 278 278 274 272 256 216 204 209 213 217 223 226 227 230 230 228 231 230 219 213 223 231 233 232 226 217 212 219 236 246 251 252 250 249 250 248 240 234 236 249 262 267 269 269 269 268 265 262 259 256 254 253 253 254 254 255 256 258 258 256 253 252 251 252 253 254 256 258 259 259 259 259 260 260 260 260 260 260 260 262 263 264 265 266
272 277 280 276 269 254 229 212 206 208 212 217 219 222 225 226 224 224 225 226 230 234 233 229 222 213 209 215 234 254 260 259 255 248 244 244 242 239 241 248 259 264 265 266 268 270 272 270 265 260 258 256 255 255 255 255 255 257 259 258 255 254 254 255 255 256 258 260 261 262 261 260 259 259 259 259 259 260 260 262 263 264 265 266 267
269 270 269 263 259 251 233 221 218 216 215 216 217 214 210 211 216 221 226 234 238 234 228 225 223 221 223 234 249 258 259 256 253 246 240 239 241 245 249 253 258 261 262 263 264 267 270 271 268 264 260 257 255 254 254 254 255 257 257 257 256 257 258 259 259 260 262 263 264 263 262 261 261 261 260 260 260 261 262 263 265 266 267 269 270
267 265 263 255 249 243 229 220 223 228 224 224 227 222 215 215 221 225 228 229 229 231 232 230 231 233 236 244 254 257 255 251 248 243 241 243 245 247 249 251 254 257 260 262 263 263 265 267 268 266 263 258 254 252 252 253 256 259 261 262 262 262 262 261 262 262 264 264 265 264 264 264 264 263 263 263 263 264 265 266 268 269 270 272 274
265 261 262 259 247 236 225 215 217 225 226 227 230 228 227 231 235 235 234 228 224 232 237 236 238 239 240 247 255 256 248 242 241 241 241 243 248 250 249 249 252 256 260 260 260 261 262 263 264 264 262 257 252 249 249 250 255 260 265 267 267 266 265 264 264 264 265 266 266 266 266 266 266 267 267 268 268 268 269 270 272 273 274 275 277
262 256 257 257 249 238 228 219 220 228 229 230 234 235 235 237 239 239 236 230 226 229 233 235 237 237 239 244 248 248 247 244 242 241 240 242 247 251 251 250 251 254 256 258 259 260 260 261 261 260 260 256 251 248 248 251 255 260 264 266 267 267 267 267 266 266 266 266 267 267 268 268 268 269 270 271 272 272 273 274 275 275 276 277 278
258 253 251 250 247 242 236 232 234 236 235 233 235 237 238 238 239 240 237 234 231 230 233 237 238 238 243 245 237 233 243 251 252 248 244 240 237 239 245 253 255 255 257 260 262 260 260 259 258 257 256 255 253 252 253 255 258 261 263 264 266 267 268 268 268 268 268 268 268 268 268 268 268 269 270 271 272 273 273 274 275 275 276 277 277
251 250 249 246 243 241 239 240 241 241 240 238 237 237 238 239 241 241 240 240 239 237 238 241 243 243 247 250 246 239 237 242 247 249 246 242 239 236 238 244 250 252 252 255 259 262 264 263 260 256 254 254 255 256 256 258 260 261 263 265 266 267 268 269 270 270 270 270 269 269 269 268 268 269 270 271 272 273 274 274 274 275 275 276 276
246 247 246 244 241 239 238 239 242 244 244 244 242 240 238 239 241 243 244 243 244 245 244 243 243 244 245 248 251 248 240 235 237 239 239 239 241 241 238 239 244 247 247 248 250 255 261 263 260 258 256 255 256 257 257 258 260 261 263 264 265 266 267 269 269 270 270 270 270 270 269 269 268 269 270 271 272 273 274 274 275 275 275 275 275
244 244 244 243 241 240 241 242 243 245 245 245 245 243 241 239 240 241 242 243 244 246 246 244 242 243 246 248 250 249 245 239 237 237 238 239 241 243 243 242 244 246 248 249 248 248 252 255 257 257 258 258 258 258 258 259 260 262 265 266 267 268 269 269 269 269 268 269 269 270 269 269 269 269 269 270 272 273 273 273 273 274 273 273 273
242 244 245 243 242 242 243 244 244 243 243 243 243 243 242 241 239 239 240 241 243 244 246 246 246 246 248 249 249 250 249 246 243 241 242 244 245 245 245 245 247 248 249 250 250 251 253 255 255 256 257 258 259 259 260 262 263 264 266 268 269 270 271 271 270 269 268 268 267 268 268 269 269 269 269 270 271 272 272 272 272 272 272 271 271
242 246 247 246 246 246 245 244 243 242 242 242 242 241 241 241 241 241 243 244 246 247 249 251 252 253 253 251 251 251 252 251 250 248 248 248 248 246 244 244 246 249 251 254 257 259 260 259 258 257 258 259 261 262 263 265 266 267 268 268 269 270 271 271 271 271 270 269 268 269 269 269 269 269 270 271 272 272 272 272 272 272 271 271 270
237 240 242 243 245 247 246 243 241 241 240 240 241 240 240 241 243 245 249 251 252 254 256 257 258 259 258 257 256 255 254 254 254 254 254 254 252 249 246 246 249 252 257 262 265 266 265 264 262 261 261 262 263 265 266 267 269 271 272 272 272 272 272 273 274 273 271 270 270 270 271 271 270 270 271 272 272 273 273 273 272 272 272 272 271
232 232 232 234 237 239 239 238 238 237 237 237 237 237 239 241 244 247 250 252 254 257 260 261 261 260 260 259 258 257 257 256 256 256 257 257 257 256 256 258 261 264 266 269 271 270 268 265 264 263 264 265 266 267 268 270 271 273 274 275 275 275 274 274 274 274 272 272 271 271 271 271 271 271 271 272 272 272 271 271 271 271 271 271 271
235 234 233 232 232 232 233 234 235 235 235 235 237 238 240 243 245 248 250 252 254 257 259 259 259 258 259 259 259 258 258 258 258 258 258 259 259 260 261 263 266 268 269 270 271 270 269 267 266 265 266 267 268 269 270 271 273 274 275 275 276 276 276 276 275 275 274 274 273 272 272 271 271 271 271 271 271 271 271 271 271 270 270 270 270
239 239 237 236 235 235 236 238 238 239 239 240 241 243 245 246 248 250 251 253 254 256 257 258 258 257 257 257 258 259 259 259 259 260 260 260 261 262 263 264 265 267 268 270 271 272 271 271 270 270 270 271 271 272 273 274 274 275 276 276 276 276 277 277 276 276 276 276 275 274 274 273 273 272 272 272 272 272 272 272 272 272 272 271 271
246 245 243 242 241 242 243 245 246 247 247 247 248 248 249 250 251 251 252 253 254 255 256 257 258 258 259 259 260 261 262 262 263 263 263 264 264 265 266 267 268 269 271 271 272 273 273 273 273 273 274 274 275 275 276 276 276 276 276 276 277 277 277 277 277 277 277 277 276 276 275 275 275 274 274 273 273 272 272 272 272 271 271 271 271
248 249 249 249 249 249 250 251 253 253 254 254 255 254 254 253 253 254 254 255 256 257 258 259 260 261 262 263 264 265 265 266 267 267 267 267 268 268 269 269 270 271 271 272 272 272 273 273 273 274 274 274 275 275 276 276 276 276 276 276 276 276 276 276 276 276 276 276 275 275 275 274 274 273 273 272 272 272 271 271 271 271 270 270 270
250 251 253 254 255 255 256 257 257 258 259 260 260 260 259 259 258 258 259 260 261 262 263 264 265 265 266 266 267 267 267 268 268 269 269 269 269 269 269 269 269 270 270 271 272 272 273 273 274 274 274 275 275 275 276 276 276 277 277 277 277 277 277 277 277 276 276 276 275 275 275 274 274 274 273 272 272 272 271 271 271 270 270 270 270
Height
5787 5787 5787 5788 5788 5789 5789 5789 5790 5790 5790 5790 5790 5791 5791 5792 5793 5794 5794 5795 5795 5795 5795 5794 5794 5794 5795 5795 5796 5796 5797 5797 5798 5798 5798 5799 5799 5800 5800 5800 5800 5801 5801 5801 5802 5802 5803 5804 5805 5806 5806 5807 5807 5808 5809 5810 5811 5811 5811 5811 5811 5812 5813 5813 5813 5814 5814 5815 5815 5815 5816 5816 5817 5818 5818 5818 5818 5819 5819 5820 5820 5821 5821 5821 5821
5784 5784 5785 5786 5787 5787 5788 5788 5788 5788 5789 5789 5789 5789 5790 5790 5791 5791 5792 5792 5792 5793 5793 5793 5793 5793 5793 5794 5794 5795 5795 5796 5796 5797 5797 5797 5798 5798 5798 5798 5799 5799 5800 5800 5801 5801 5802 5803 5804 5804 5805 5806 5806 5807 5808 5809 5810 5810 5810 5810 5810 5811 5812 5812 5812 5813 5814 5814 5814 5815 5815 5816 5816 5817 5817 5818 5818 5818 5819 5819 5819 5820 5820 5821 5821
5780 5781 5783 5784 5784 5785 5786 5786 5786 5786 5787 5787 5787 5787 5787 5788 5788 5789 5789 5790 5790 5790 5790 5791 5791 5791 5791 5792 5792 5793 5793 5794 5795 5795 5796 5796 5796 5797 5797 5797 5798 5798 5798 5799 5800 5800 5801 5802 5803 5803 5804 5805 5805 5806 5807 5808 5809 5809 5809 5809 5810 5810 5811 5811 5812 5812 5813 5813 5814 5814 5815 5816 5816 5816 5816 5817 5817 5818 5818 5818 5819 5819 5820 5820 5820
5777 5778 5780 5781 5782 5783 5784 5784 5784 5784 5784 5785 5785 5785 5785 5786 5786 5787 5787 5787 5787 5787 5787 5788 5789 5789 5790 5790 5790 5791 5792 5793 5793 5794 5794 5794 5795 5796 5796 5796 5796 5797 5797 5798 5799 5799 5800 5801 5802 5802 5803 5803 5804 5805 5806 5807 5807 5808 5808 5808 5809 5809 5810 5810 5811 5811 5812 5813 5813 5813 5814 5815 5815 5815 5816 5816 5817 5817 5817 5817 5818 5819 5819 5819 5819
5774 5775 5777 5778 5779 5780 5781 5781 5782 5782 5782 5783 5783 5783 5783 5784 5784 5784 5785 5785 5785 5785 5785 5786 5787 5787 5788 5788 5789 5790 5790 5791 5792 5792 5792 5793 5794 5794 5794 5795 5795 5795 5796 5797 5798 5798 5799 5800 5800 5801 5801 5802 5803 5804 5805 5805 5806 5806 5806 5807 5807 5808 5809 5809 5810 5810 5811 5811 5812 5812 5813 5813 5814 5814 5815 5815 5816 5816 5816 5816 5817 5818 5818 5818 5817
5771 5772 5774 5775 5777 5778 5778 5779 5780 5780 5780 5780 5781 5781 5781 5782 5782 5782 5782 5783 5783 5783 5783 5784 5785 5785 5786 5787 5788 5788 5789 5789 5790 5790 5791 5791 5792 5793 5793 5794 5794 5794 5795 5796 5796 5797 5798 5798 5799 5799 5800 5801 5802 5802 5803 5804 5804 5805 5805 5805 5806 5807 5808 5808 5809 5809 5810 5810 5810 5811 5812 5812 5813 5813 5813 5814 5814 5814 5815 5815 5816 5816 5816 5816 5816
5768 5770 5771 5772 5774 5775 5776 5777 5777 5778 5778 5779 5779 5779 5779 5779 5780 5780 5780 5780 5780 5781 5781 5782 5783 5784 5784 5785 5786 5786 5787 5788 5788 5789 5789 5790 5791 5791 5792 5792 5793 5793 5794 5794 5795 5796 5796 5797 5797 5798 5799 5799 5800 5801 5801 5802 5803 5803 5804 5804 5805 5806 5806 5807 5807 5808 5808 5809 5809 5810 5810 5811 5811 5812 5812 5812 5813 5813 5813 5813 5814 5815 5815 5815 5815
5766 5768 5769 5770 5772 5773 5774 5775 5775 5776 5776 5777 5777 5777 5777 5777 5777 5777 5777 5778 5778 5779 5779 5780 5781 5782 5782 5783 5784 5785 5785 5786 5787 5787 5788 5789 5789 5790 5790 5791 5791 5792 5792 5793 5794 5794 5795 5795 5796 5796 5797 5798 5798 5799 5800 5800 5801 5802 5802 5803 5803 5804 5804 5805 5805 5805 5806 5807 5807 5808 5809 5809 5809 5810 5810 5811 5811 5811 5812 5812 5813 5814 5814 5814 5813
5764 5765 5767 5768 5770 5771 5771 5772 5773 5774 5774 5775 5775 5775 5774 5774 5775 5775 5775 5776 5776 5777 5777 5778 5779 5780 5780 5781 5782 5783 5784 5784 5785 5786 5786 5787 5788 5788 5789 5789 5790 5791 5791 5792 5792 5793 5793 5794 5794 5795 5795 5796 5797 5797 5798 5799 5799 5800 5800 5801 5801 5801 5802 5803 5803 5804 5805 5805 5806 5807 5807 5808 5808 5808 5809 5809 5809 5809 5810 5811 5812 5812 5813 5812 5811
5761 5762 5764 5766 5767 5768 5769 5770 5770 5771 5772 5772 5772 5772 5772 5772 5772 5772 5773 5774 5775 5775 5776 5776 5777 5778 5778 5779 5780 5781 5782 5783 5784 5784 5785 5786 5786 5787 5788 5788 5789 5789 5790 5791 5791 5791 5792 5792 5793 5793 5794 5794 5795 5796 5796 5797 5797 5798 5798 5799 5799 5800 5801 5801 5802 5802 5803 5804 5804 5805 5806 5806 5807 5807 5807 5807 5807 5807 5808 5809 5810 5810 5811 5810 5810
5758 5760 5762 5763 5764 5765 5766 5767 5768 5769 5769 5770 5770 5770 5770 5769 5770 5770 5771 5772 5773 5773 5774 5774 5775 5776 5777 5778 5779 5780 5781 5781 5782 5783 5783 5784 5785 5786 5786 5787 5787 5788 5789 5789 5789 5790 5790 5791 5791 5792 5792 5793 5794 5794 5795 5795 5796 5797 5797 5797 5798 5799 5799 5800 5801 5801 5802 5803 5803 5803 5804 5805 5805 5805 5805 5804 5805 5805 5806 5807 5808 5808 5808 5808 5808
5755 5757 5759 5760 5761 5763 5764 5765 5765 5766 5767 5767 5768 5768 5768 5767 5768 5769 5770 5770 5771 5771 5772 5773 5773 5774 5775 5777 5777 5778 5779 5780 5780 5781 5782 5783 5783 5784 5784 5785 5786 5786 5787 5787 5788 5788 5788 5789 5790 5790 5791 5792 5792 5793 5793 5794 5794 5795 5795 5796 5797 5798 5798 5799 5800 5800 5801 5801 5801 5802 5803 5804 5803 5803 5803 5802 5803 5803 5804 5805 5806 5806 5806 5806 5806
5753 5754 5756 5757 5758 5759 5760 5762 5763 5764 5764 5765 5765 5766 5766 5766 5766 5767 5768 5768 5769 5770 5770 5771 5772 5772 5774 5775 5776 5776 5777 5778 5779 5779 5780 5781 5782 5782 5782 5783 5783 5784 5785 5786 5786 5786 5787 5788 5788 5789 5790 5790 5791 5792 5792 5792 5793 5793 5794 5795 5796 5796 5797 5798 5798 5798 5799 5799 5800 5801 5802 5802 5801 5801 5801 5801 5801 5802 5803 5803 5804 5804 5804 5804 5804
5750 5751 5753 5754 5753 5754 5756 5759 5760 5761 5762 5762 5763 5763 5763 5764 5764 5765 5766 5766 5767 5768 5768 5769 5770 5770 5772 5773 5774 5775 5776 5777 5777 5778 5778 5779 5779 5779 5780 5781 5781 5782 5783 5784 5784 5785 5786 5786 5787 5788 5788 5789 5790 5790 5791 5791 5791 5792 5792 5793 5794 5795 5796 5796 5796 5797 5797 5798 5798 5799 5800 5800 5799 5799 5799 5799 5800 5800 5801 5801 5802 5802 5802 5802 5802
5747 5749 5750 5751 5751 5753 5755 5756 5757 5758 5759 5760 5761 5761 5761 5761 5762 5763 5763 5764 5765 5766 5766 5767 5768 5769 5770 5772 5773 5774 5774 5775 5776 5776 5776 5777 5777 5777 5778 5779 5779 5780 5781 5782 5783 5784 5784 5785 5786 5786 5787 5788 5789 5789 5790 5790 5791 5791 5791 5792 5793 5793 5794 5795 5796 5796 5796 5797 5797 5797 5798 5798 5798 5798 5797 5798 5798 5799 5799 5800 5800 5799 5800 5800 5800
5745 5746 5748 5749 5750 5753 5754 5754 5755 5757 5757 5758 5758 5759 5758 5759 5759 5760 5761 5762 5763 5764 5764 5766 5767 5768 5769 5771 5771 5772 5773 5774 5774 5775 5775 5775 5775 5776 5776 5777 5778 5778 5780 5781 5781 5782 5783 5784 5785 5785 5786 5787 5788 5788 5789 5790 5790 5791 5791 5791 5792 5793 5793 5794 5794 5795 5795 5795 5795 5795 5796 5796 5796 5796 5796 5796 5797 5797 5797 5798 5797 5797 5798 5798 5798
5743 5744 5746 5747 5748 5750 5752 5753 5754 5755 5755 5755 5756 5755 5755 5756 5757 5758 5759 5760 5761 5762 5763 5764 5766 5767 5768 5769 5770 5771 5772 5773 5774 5774 5775 5775 5775 5775 5776 5776 5777 5777 5778 5779 5780 5781 5782 5783 5783 5784 5785 5785 5786 5787 5788 5789 5789 5790 5790 5791 5791 5791 5792 5792 5793 5793 5793 5793 5793 5794 5794 5794 5794 5794 5795 5795 5795 5796 5796 5796 5796 5796 5796 5796 5796
5740 5741 5743 5745 5746 5748 5750 5751 5752 5752 5752 5752 5752 5752 5753 5754 5756 5757 5758 5759 5760 5761 5762 5763 5764 5765 5766 5767 5768 5770 5771 5772 5773 5774 5774 5774 5774 5775 5775 5776 5776 5776 5777 5778 5779 5780 5781 5781 5782 5782 5783 5784 5784 5785 5786 5787 5788 5789 5789 5789 5790 5790 5790 5790 5791 5791 5791 5792 5792 5792 5792 5792 5792 5793 5793 5793 5794 5794 5794 5794 5794 5794 5794 5794 5794
5737 5739 5741 5743 5743 5745 5747 5748 5749 5749 5749 5749 5749 5750 5752 5753 5755 5756 5756 5757 5759 5760 5761 5762 5763 5764 5765 5766 5767 5769 5770 5771 5772 5773 5773 5773 5773 5774 5774 5775 5775 5775 5776 5777 5778 5779 5779 5780 5780 5781 5781 5782 5783 5784 5785 5785 5786 5787 5787 5788 5788 5788 5788 5788 5789 5789 5789 5790 5790 5790 5790 5790 5791 5791 5791 5791 5792 5792 5792 5792 5792 5792 5792 5792 5792
5735 5737 5739 5739 5738 5740 5742 5744 5745 5745 5745 5746 5747 5749 5750 5751 5752 5753 5754 5755 5757 5758 5759 5760 5761 5762 5762 5763 5764 5766 5767 5769 5770 5770 5770 5771 5771 5772 5773 5773 5774 5774 5775 5775 5776 5777 5778 5778 5779 5780 5780 5781 5781 5782 5783 5784 5785 5785 5786 5786 5786 5786 5787 5787 5787 5787 5788 5788 5788 5788 5788 5788 5789 5789 5789 5789 5790 5790 5790 5790 5790 5791 5791 5790 5790
5733 5734 5735 5735 5735 5737 5739 5740 5740 5741 5742 5744 5746 5747 5748 5748 5749 5750 5751 5753 5754 5756 5757 5758 5759 5760 5760 5760 5761 5762 5763 5765 5766 5767 5767 5768 5769 5770 5771 5772 5772 5773 5774 5774 5775 5776 5777 5777 5778 5778 5779 5780 5780 5781 5782 5783 5783 5784 5784 5785 5785 5785 5785 5785 5786 5786 5786 5786 5786 5786 5787 5787 5787 5787 5787 5788 5788 5789 5789 5789 5789 5789 5789 5789 5789
5730 5730 5731 5732 5733 5734 5737 5736 5735 5736 5739 5742 5743 5744 5744 5745 5746 5747 5749 5751 5752 5754 5755 5755 5756 5757 5758 5758 5758 5759 5760 5761 5762 5763 5764 5765 5766 5767 5768 5769 5770 5771 5772 5773 5774 5774 5775 5776 5776 5777 5778 5778 5779 5780 5780 5781 5782 5782 5783 5783 5784 5784 5784 5784 5784 5784 5784 5785 5785 5785 5785 5785 5785 5786 5786 5786 5786 5786 5787 5787 5787 5787 5787 5788 5788
5727 5726 5726 5727 5727 5730 5733 5732 5729 5732 5735 5737 5738 5739 5740 5741 5743 5746 5747 5749 5750 5750 5751 5752 5754 5755 5756 5756 5756 5757 5758 5758 5760 5761 5762 5763 5764 5765 5766 5767 5768 5769 5770 5771 5772 5772 5773 5774 5774 5775 5775 5776 5777 5778 5779 5780 5780 5781 5781 5782 5782 5783 5783 5783 5783 5783 5783 5783 5784 5784 5784 5784 5784 5784 5784 5784 5784 5785 5785 5785 5786 5786 5786 5786 5786
5723 5722 5722 5722 5722 5723 5726 5725 5725 5728 5730 5732 5734 5735 5736 5738 5741 5743 5744 5745 5746 5746 5748 5749 5751 5752 5754 5755 5755 5755 5756 5757 5758 5759 5761 5761 5762 5763 5763 5764 5765 5766 5767 5768 5769 5770 5771 5771 5772 5772 5773 5774 5775 5776 5777 5778 5779 5779 5780 5780 5781 5781 5781 5781 5782 5782 5782 5782 5782 5782 5782 5782 5782 5782 5782 5783 5783 5783 5783 5783 5784 5784 5784 5784 5784
5719 5717 5717 5718 5718 5719 5719 5719 5721 5725 5726 5728 5731 5732 5733 5736 5738 5739 5740 5741 5742 5743 5744 5746 5748 5749 5751 5752 5753 5753 5754 5755 5756 5757 5759 5760 5760 5761 5762 5762 5763 5763 5764 5765 5766 5767 5768 5769 5770 5770 5771 5772 5773 5774 5775 5775 5776 5777 5778 5778 5779 5779 5779 5780 5780 5781 5781 5781 5781 5781 5781 5781 5781 5781 5781 5781 5781 5781 5781 5782 5782 5782 5782 5782 5782
5713 5712 5712 5714 5715 5714 5715 5716 5718 5721 5723 5726 5727 5729 5731 5733 5733 5734 5736 5738 5739 5740 5741 5743 5744 5746 5748 5749 5750 5751 5752 5753 5754 5755 5756 5758 5759 5759 5760 5760 5760 5761 5762 5763 5764 5764 5765 5766 5767 5768 5769 5769 5770 5771 5772 5773 5774 5774 5775 5776 5777 5777 5777 5778 5778 5779 5779 5779 5779 5779 5779 5779 5779 5779 5779 5779 5779 5779 5779 5779 5779 5779 5779 5779 5779
5708 5708 5708 5709 5710 5710 5711 5712 5714 5717 5721 5723 5723 5725 5728 5729 5728 5729 5733 5735 5736 5737 5739 5740 5741 5742 5744 5746 5747 5749 5750 5750 5751 5752 5754 5755 5756 5756 5757 5757 5758 5758 5759 5760 5761 5762 5763 5764 5765 5766 5766 5767 5768 5768 5769 5770 5771 5772 5773 5773 5774 5775 5775 5776 5776 5776 5776 5777 5777 5777 5777 5777 5778 5778 5778 5778 5778 5777 5777 5777 5777 5777 5777 5776 5776
5705 5704 5704 5705 5705 5705 5707 5708 5710 5713 5717 5719 5719 5721 5724 5725 5725 5726 5730 5733 5734 5735 5736 5737 5738 5740 5741 5743 5745 5746 5747 5747 5748 5749 5751 5752 5752 5753 5754 5754 5755 5756 5757 5757 5758 5759 5760 5761 5762 5763 5764 5765 5765 5766 5767 5768 5768 5769 5770 5771 5772 5773 5773 5773 5774 5774 5774 5774 5774 5774 5774 5775 5775 5775 5775 5775 5775 5775 5775 5775 5775 5774 5774 5774 5773
5701 5701 5701 5701 5701 5701 5702 5703 5706 5711 5714 5715 5716 5719 5721 5722 5721 5722 5726 5729 5730 5732 5733 5735 5736 5737 5739 5741 5742 5743 5744 5745 5745 5746 5747 5748 5749 5750 5751 5752 5752 5753 5754 5755 5756 5757 5757 5758 5759 5760 5761 5762 5763 5764 5765 5766 5766 5767 5768 5768 5769 5770 5770 5771 5771 5771 5771 5771 5771 5772 5772 5772 5772 5772 5772 5772 5772 5772 5772 5772 5772 5772 5772 5771 5771
5698 5698 5698 5698 5698 5698 5697 5699 5703 5707 5710 5712 5714 5716 5718 5719 5719 5720 5723 5726 5728 5729 5731 5732 5734 5735 5736 5738 5740 5740 5741 5741 5742 5742 5744 5745 5746 5747 5748 5749 5750 5750 5751 5752 5753 5754 5755 5755 5756 5757 5759 5760 5761 5762 5763 5763 5764 5765 5765 5766 5766 5767 5767 5768 5768 5768 5768 5769 5769 5769 5769 5769 5769 5769 5769 5769 5769 5769 5769 5769 5769 5769 5769 5769 5768
5696 5695 5695 5696 5695 5695 5695 5697 5701 5704 5707 5709 5711 5713 5715 5716 5718 5719 5721 5723 5725 5727 5728 5730 5731 5732 5733 5735 5736 5737 5738 5739 5739 5740 5742 5743 5743 5744 5745 5746 5747 5748 5749 5749 5750 5751 5752 5753 5753 5754 5756 5757 5758 5759 5759 5760 5761 5762 5762 5763 5763 5764 5764 5765 5765 5765 5765 5766 5766 5766 5766 5766 5766 5766 5766 5766 5766 5766 5766 5766 5766 5766 5766 5765 5765
5694 5694 5694 5694 5693 5693 5693 5694 5698 5702 5705 5707 5709 5711 5712 5714 5715 5717 5718 5720 5722 5724 5726 5727 5728 5730 5731 5732 5734 5735 5736 5738 5738 5739 5740 5740 5741 5741 5742 5743 5744 5745 5746 5747 5747 5748 5749 5750 5751 5752 5752 5753 5754 5755 5756 5757 5757 5758 5759 5760 5760 5761 5761 5761 5762 5762 5762 5762 5762 5762 5762 5762 5762 5762 5762 5762 5762 5762 5762 5762 5762 5762 5762 5762 5762
5692 5692 5692 5692 5693 5693 5693 5694 5697 5700 5703 5705 5707 5708 5710 5711 5713 5715 5715 5717 5719 5721 5723 5725 5726 5727 5728 5730 5732 5733 5734 5735 5736 5736 5737 5738 5738 5739 5740 5741 5742 5742 5743 5744 5745 5745 5746 5747 5748 5749 5750 5751 5751 5752 5753 5753 5754 5755 5756 5756 5757 5757 5757 5758 5758 5758 5758 5758 5758 5758 5758 5759 5759 5759 5759 5759 5759 5759 5759 5759 5759 5759 5758 5758 5758
5690 5690 5691 5691 5692 5692 5693 5695 5696 5697 5700 5703 5704 5706 5708 5709 5710 5712 5713 5714 5716 5718 5720 5722 5723 5724 5726 5727 5729 5730 5731 5732 5732 5733 5734 5735 5735 5736 5738 5738 5739 5740 5740 5741 5742 5743 5743 5744 5745 5746 5747 5747 5748 5749 5749 5750 5750 5751 5752 5752 5753 5753 5753 5754 5754 5754 5754 5754 5754 5754 5754 5754 5754 5754 5754 5754 5754 5754 5754 5754 5754 5754 5754 5753 5753
5687 5688 5689 5690 5690 5691 5692 5694 5694 5695 5698 5701 5702 5703 5705 5706 5707 5709 5710 5712 5713 5715 5717 5719 5721 5722 5724 5725 5726 5727 5728 5729 5730 5730 5731 5732 5733 5733 5734 5735 5736 5737 5737 5738 5739 5739 5740 5741 5742 5742 5743 5744 5745 5745 5746 5746 5747 5747 5748 5749 5749 5749 5749 5750 5750 5750 5750 5750 5750 5750 5750 5749 5749 5749 5749 5749 5749 5749 5749 5749 5749 5749 5749 5748 5748
5685 5686 5686 5687 5688 5689 5691 5692 5693 5694 5696 5698 5700 5702 5704 5704 5705 5707 5708 5710 5711 5713 5714 5716 5718 5719 5721 5722 5723 5724 5725 5726 5726 5727 5727 5728 5729 5730 5731 5732 5733 5733 5734 5735 5736 5736 5737 5737 5738 5739 5739 5740 5741 5742 5743 5743 5744 5744 5745 5745 5745 5746 5746 5746 5746 5745 5745 5745 5745 5745 5744 5744 5744 5743 5743 5744 5744 5744 5744 5743 5743 5743 5743 5742 5742
5682 5682 5683 5684 5686 5687 5688 5689 5691 5692 5694 5696 5697 5699 5702 5703 5703 5705 5707 5708 5710 5711 5712 5713 5714 5716 5717 5719 5720 5721 5721 5722 5722 5723 5724 5725 5726 5727 5728 5729 5730 5730 5731 5732 5732 5733 5733 5734 5734 5735 5736 5736 5737 5738 5738 5739 5740 5740 5741 5741 5741 5741 5741 5741 5741 5740 5740 5740 5740 5739 5739 5738 5738 5737 5737 5737 5737 5737 5737 5737 5737 5736 5736 5736 5735
5678 5679 5680 5681 5682 5683 5685 5687 5688 5690 5692 5694 5695 5697 5699 5700 5701 5703 5704 5706 5708 5710 5710 5711 5712 5713 5714 5715 5716 5717 5718 5718 5720 5721 5722 5723 5724 5725 5725 5725 5726 5727 5727 5728 5728 5729 5730 5730 5731 5731 5732 5732 5733 5733 5734 5734 5735 5735 5736 5736 5737 5737 5737 5736 5736 5735 5735 5734 5734 5734 5733 5733 5732 5731 5731 5731 5731 5731 5731 5730 5730 5730 5729 5729 5728
5674 5676 5677 5678 5679 5680 5682 5684 5685 5688 5690 5691 5693 5694 5696 5697 5698 5699 5701 5702 5704 5706 5707 5708 5709 5710 5711 5712 5714 5714 5715 5715 5716 5718 5719 5720 5721 5722 5722 5721 5722 5723 5724 5724 5724 5725 5725 5726 5727 5727 5727 5728 5728 5728 5729 5729 5729 5730 5730 5731 5731 5731 5731 5731 5731 5730 5729 5729 5728 5728 5727 5727 5726 5726 5725 5725 5725 5725 5725 5724 5724 5723 5723 5722 5721
5671 5672 5673 5675 5676 5677 5679 5681 5682 5684 5686 5688 5690 5691 5693 5694 5695 5696 5698 5699 5700 5702 5703 5704 5706 5707 5708 5708 5710 5711 5712 5712 5712 5714 5715 5716 5717 5717 5718 5718 5717 5718 5719 5719 5720 5720 5720 5720 5721 5721 5722 5722 5723 5723 5724 5724 5724 5724 5724 5725 5725 5726 5726 5726 5725 5724 5724 5723 5723 5722 5721 5721 5720 5720 5719 5719 5719 5718 5718 5718 5717 5717 5717 5716 5714
5667 5669 5670 5671 5672 5674 5676 5678 5679 5681 5682 5684 5686 5688 5690 5691 5692 5693 5694 5696 5697 5698 5699 5701 5702 5703 5704 5705 5705 5706 5708 5708 5709 5710 5711 5711 5712 5712 5713 5714 5713 5714 5715 5715 5716 5717 5716 5715 5715 5715 5715 5717 5718 5718 5718 5718 5718 5719 5719 5719 5720 5720 5720 5720 5719 5719 5718 5717 5716 5715 5715 5714 5714 5713 5712 5712 5711 5711 5710 5710 5710 5709 5709 5708 5706
5664 5665 5667 5668 5669 5671 5673 5675 5676 5677 5679 5680 5681 5683 5685 5687 5688 5690 5691 5692 5693 5694 5695 5697 5699 5700 5701 5701 5701 5702 5703 5704 5705 5706 5706 5707 5707 5707 5708 5709 5709 5710 5710 5710 5711 5712 5712 5711 5711 5710 5711 5712 5712 5712 5713 5713 5713 5713 5713 5713 5713 5713 5714 5714 5713 5712 5711 5710 5709 5708 5708 5707 5706 5706 5705 5704 5703 5702 5702 5702 5701 5700 5699 5699 5698
5660 5662 5664 5665 5667 5668 5670 5671 5672 5674 5675 5676 5677 5678 5680 5682 5683 5685 5686 5688 5689 5690 5691 5692 5694 5695 5697 5697 5697 5698 5699 5700 5700 5701 5702 5702 5702 5703 5703 5703 5704 5705 5705 5706 5706 5706 5707 5707 5707 5706 5706 5706 5706 5706 5706 5707 5706 5706 5706 5706 5706 5706 5706 5706 5705 5705 5704 5703 5702 5701 5700 5699 5698 5697 5696 5695 5694 5693 5692 5692 5692 5691 5690 5689 5689
5658 5659 5660 5662 5663 5665 5666 5667 5668 5670 5671 5672 5673 5674 5676 5677 5679 5680 5681 5683 5684 5685 5687 5688 5689 5691 5692 5693 5694 5694 5695 5696 5696 5697 5697 5697 5697 5698 5698 5698 5698 5699 5700 5700 5700 5701 5701 5701 5701 5700 5700 5699 5699 5699 5699 5698 5698 5697 5697 5698 5698 5698 5698 5697 5697 5697 5696 5695 5693 5692 5691 5690 5689 5688 5687 5686 5685 5684 5683 5682 5682 5681 5680 5679 5679
5655 5656 5657 5658 5660 5661 5662 5663 5664 5666 5667 5668 5669 5670 5672 5673 5674 5675 5676 5677 5679 5680 5681 5683 5684 5685 5687 5688 5689 5690 5690 5691 5691 5692 5692 5692 5692 5692 5692 5692 5692 5693 5693 5694 5694 5694 5695 5695 5694 5694 5693 5692 5691 5691 5690 5689 5689 5689 5688 5688 5688 5688 5688 5688 5688 5687 5686 5686 5685 5684 5682 5681 5680 5679 5678 5677 5676 5675 5674 5673 5672 5671 5669 5669 5669
5653 5654 5654 5655 5656 5657 5658 5659 5661 5662 5663 5664 5665 5666 5667 5668 5669 5671 5672 5673 5674 5675 5676 5677 5678 5679 5681 5682 5683 5684 5685 5686 5686 5686 5687 5687 5687 5687 5687 5687 5687 5687 5687 5687 5687 5687 5688 5688 5687 5686 5686 5685 5683 5683 5682 5681 5681 5680 5680 5679 5678 5678 5678 5678 5678 5677 5676 5676 5676 5675 5673 5672 5671 5670 5669 5668 5667 5666 5664 5664 5663 5662 5660 5660 5659
5649 5650 5651 5652 5652 5653 5654 5655 5656 5658 5659 5660 5661 5662 5663 5664 5665 5666 5667 5668 5669 5670 5671 5672 5673 5674 5675 5676 5677 5678 5679 5680 5680 5681 5681 5681 5681 5682 5682 5682 5681 5681 5681 5681 5681 5681 5680 5680 5679 5679 5678 5677 5675 5674 5674 5673 5672 5671 5671 5670 5669 5669 5668 5667 5667 5666 5666 5666 5666 5665 5663 5662 5662 5661 5659 5658 5657 5656 5654 5653 5652 5652 5651 5650 5649
5645 5646 5647 5648 5649 5650 5651 5651 5652 5653 5654 5655 5656 5657 5659 5660 5661 5662 5663 5664 5665 5665 5666 5667 5668 5669 5669 5670 5671 5672 5673 5673 5674 5674 5675 5675 5675 5675 5676 5675 5675 5675 5674 5674 5673 5673 5672 5672 5671 5670 5670 5668 5667 5665 5665 5664 5663 5662 5662 5661 5660 5659 5658 5657 5656 5655 5655 5655 5654 5653 5652 5651 5650 5650 5649 5647 5646 5644 5644 5642 5641 5640 5639 5638 5638
5640 5641 5642 5643 5644 5645 5646 5647 5648 5649 5650 5651 5651 5652 5654 5655 5656 5657 5658 5659 5660 5660 5661 5662 5663 5663 5664 5665 5665 5666 5667 5667 5667 5667 5668 5668 5668 5668 5668 5668 5668 5667 5666 5666 5666 5665 5664 5664 5663 5662 5661 5660 5658 5656 5656 5655 5654 5653 5652 5651 5650 5649 5648 5647 5645 5644 5644 5643 5642 5641 5640 5639 5638 5638 5637 5635 5634 5632 5631 5631 5629 5628 5627 5627 5626
5635 5636 5637 5638 5639 5640 5641 5642 5643 5644 5645 5645 5646 5647 5648 5650 5651 5652 5653 5653 5654 5655 5655 5657 5657 5658 5659 5659 5660 5661 5661 5661 5660 5661 5661 5661 5661 5661 5661 5661 5661 5660 5660 5659 5659 5658 5657 5656 5655 5654 5653 5652 5650 5648 5647 5646 5645 5643 5642 5641 5640 5638 5637 5636 5635 5634 5633 5632 5630 5629 5628 5626 5625 5625 5624 5623 5621 5620 5618 5617 5616 5615 5615 5614 5613
5631 5631 5632 5633 5634 5635 5636 5637 5638 5639 5639 5640 5640 5641 5642 5644 5645 5646 5647 5647 5647 5648 5649 5650 5651 5652 5652 5653 5654 5654 5655 5654 5654 5653 5653 5654 5654 5654 5654 5654 5654 5653 5653 5653 5651 5650 5649 5648 5646 5645 5644 5643 5642 5640 5638 5636 5635 5633 5632 5630 5628 5627 5626 5624 5623 5622 5621 5619 5617 5617 5615 5614 5612 5612 5611 5609 5608 5607 5606 5604 5603 5603 5603 5602 5602